Flag for Botswana Weather past 2 weeks in Molepolole, Botswana

Now
73 °F

Passing clouds.


Feels Like: 75 °F
Forecast: 65 / 83 °F
Wind: 7 mph from Northeast

Location: Seretse Khama International Airport

Current Time: Jan 29, 2015 at 9:21:34 PM

Latest Report: Jan 29, 2015 at 9:00 PM


Visibility: N/A

Pressure: 30.04 "Hg

Humidity: 74%

Dew point: 64 °F

Location of MolepololeLocation

Historic Weather in Molepolole — Graph

°F

Molepolole temperature yesterday

Maximum temperature yesterday: 75 °F (at 3:00 AM)
Minimum temperature yesterday: 66 °F (at 6:00 AM)
Average temperature yesterday: 69 °F

Past Weeks' High & Low Weather Summary

 TemperatureHumidityPressure
High99 °F (Jan 27, 4:00 PM)94% (Jan 15, 12:00 AM)31.42 "Hg (Jan 15, 12:00 AM)
Low61 °F (Jan 19, 6:00 AM)16% (Jan 21, 5:00 PM)29.80 "Hg (Jan 16, 4:00 PM)
Average79 °F50%30.02 "Hg
* Reported Jan 14 8:00 PM — Jan 29 8:00 PM, Molepolole, Weather by CustomWeather, © 2014

Note: Actual official high and low records may vary slightly from our data, if they occured in-between our weather recording intervals... More about our weather records

Advertising

Molepolole weather history for previous 24 hours

 ConditionsComfort  
Time TempWeatherWind HumidityBarometerVisibility
8:00 PM
Jan 29
73 °FPassing clouds.8 mph69%30.01 "HgN/A
7:00 PM77 °FPassing clouds.13 mph61%30.04 "HgN/A
6:00 PM79 °FScattered clouds.7 mph65%30.01 "HgN/A
5:00 PM79 °FScattered clouds.1 mph65%29.98 "HgN/A
4:00 PM79 °FLight rain. Partly sunny.5 mph61%29.98 "HgN/A
3:00 PM77 °FScattered clouds.13 mph69%30.01 "HgN/A
2:00 PM82 °FScattered clouds.5 mph51%30.01 "HgN/A
1:00 PM77 °FBroken clouds.2 mph65%30.04 "HgN/A
12:00 PM77 °FScattered clouds.7 mph65%30.04 "HgN/A
11:00 AM79 °FScattered clouds.6 mph61%30.07 "HgN/A
10:00 AM79 °FPartly sunny.7 mph61%30.09 "HgN/A
9:00 AM73 °FPartly sunny.5 mph78%30.09 "HgN/A
8:00 AM72 °FScattered clouds.5 mph83%30.09 "HgN/A
7:00 AM68 °FPartly sunny.6 mph88%30.07 "HgN/A
6:00 AM68 °FPartly sunny.5 mph88%30.07 "HgN/A
5:00 AM66 °FSunny.5 mph94%30.04 "Hg10 mi
3:00 AM66 °FPassing clouds.3 mph94%30.04 "HgN/A
2:00 AM68 °FClear.2 mph88%30.04 "Hg10 mi
11:00 PM
Jan 28
70 °FClear.3 mph88%30.04 "Hg10 mi
10:00 PM72 °FClear.6 mph83%30.04 "Hg10 mi
9:00 PM72 °FClear.7 mph83%30.01 "Hg10 mi
Weather by CustomWeather, © 2014

See weather overviewHow to use our weather pages